QPF
0.01 0.02 0.03 0.04 0.03 0.02 0.01 0.00 0.00 0.00 0.00 0.00 0.00 0.00 0.00 0.00 0.01 0.04 0.07 0.05 0.02 0.01 0.01 0.03 0.04 0.04 0.04 0.03 0.01 0.01 0.00 0.00 0.00 0.00 0.00 0.00 0.00 0.00 0.00 0.01 0.01 0.01 0.02 0.03 0.02 0.02 0.02 0.02 0.01
0.01 0.02 0.04 0.04 0.02 0.02 0.01 0.00 0.00 0.00 0.00 0.00 0.00 0.00 0.00 0.00 0.01 0.03 0.08 0.09 0.04 0.02 0.02 0.03 0.05 0.04 0.03 0.04 0.02 0.01 0.00 0.00 0.00 0.01 0.01 0.01 0.01 0.01 0.01 0.01 0.01 0.01 0.01 0.01 0.01 0.01 0.01 0.01 0.01
0.02 0.03 0.04 0.04 0.02 0.01 0.01 0.01 0.00 0.00 0.01 0.00 0.00 0.00 0.00 0.01 0.01 0.03 0.07 0.10 0.07 0.04 0.03 0.04 0.05 0.05 0.04 0.04 0.04 0.02 0.01 0.00 0.00 0.01 0.01 0.01 0.01 0.01 0.02 0.01 0.01 0.00 0.00 0.00 0.00 0.00 0.00 0.01 0.01
0.03 0.04 0.04 0.03 0.02 0.01 0.01 0.01 0.01 0.01 0.01 0.01 0.01 0.00 0.01 0.01 0.01 0.03 0.07 0.09 0.08 0.06 0.04 0.05 0.05 0.05 0.05 0.04 0.04 0.04 0.02 0.01 0.01 0.01 0.01 0.01 0.01 0.01 0.01 0.01 0.01 0.00 0.00 0.00 0.00 0.00 0.00 0.00 0.00
0.04 0.05 0.04 0.03 0.02 0.01 0.00 0.01 0.01 0.01 0.01 0.01 0.01 0.01 0.01 0.01 0.01 0.03 0.05 0.07 0.07 0.07 0.04 0.05 0.06 0.05 0.05 0.05 0.04 0.05 0.03 0.01 0.01 0.01 0.01 0.01 0.01 0.01 0.01 0.01 0.01 0.00 0.00 0.00 0.00 0.00 0.00 0.00 0.01
0.04 0.06 0.04 0.02 0.02 0.02 0.01 0.01 0.01 0.01 0.01 0.01 0.02 0.02 0.01 0.01 0.03 0.05 0.05 0.06 0.05 0.06 0.04 0.05 0.08 0.06 0.04 0.05 0.05 0.04 0.04 0.03 0.02 0.02 0.02 0.01 0.01 0.01 0.01 0.01 0.01 0.01 0.01 0.01 0.01 0.01 0.00 0.00 0.01
0.05 0.05 0.03 0.02 0.01 0.02 0.02 0.01 0.02 0.02 0.01 0.01 0.02 0.02 0.02 0.03 0.05 0.08 0.08 0.07 0.05 0.04 0.05 0.05 0.07 0.07 0.04 0.05 0.07 0.05 0.04 0.03 0.03 0.03 0.02 0.01 0.01 0.01 0.01 0.01 0.01 0.01 0.01 0.01 0.01 0.01 0.01 0.01 0.01
0.06 0.04 0.02 0.02 0.02 0.01 0.01 0.01 0.02 0.02 0.02 0.01 0.02 0.03 0.03 0.03 0.05 0.08 0.08 0.10 0.08 0.05 0.04 0.05 0.08 0.09 0.07 0.05 0.09 0.07 0.04 0.03 0.02 0.03 0.04 0.02 0.02 0.01 0.02 0.01 0.01 0.01 0.01 0.01 0.01 0.01 0.01 0.01 0.01
0.07 0.04 0.02 0.02 0.01 0.01 0.01 0.02 0.01 0.03 0.03 0.02 0.02 0.03 0.04 0.04 0.06 0.08 0.09 0.11 0.11 0.07 0.04 0.05 0.08 0.10 0.09 0.06 0.08 0.11 0.08 0.05 0.04 0.02 0.03 0.04 0.03 0.02 0.01 0.01 0.01 0.01 0.01 0.01 0.01 0.01 0.01 0.01 0.01
0.07 0.04 0.02 0.01 0.01 0.01 0.01 0.02 0.02 0.03 0.04 0.03 0.03 0.03 0.04 0.08 0.09 0.09 0.09 0.12 0.15 0.10 0.06 0.05 0.05 0.08 0.10 0.07 0.07 0.11 0.12 0.10 0.07 0.04 0.03 0.04 0.04 0.03 0.01 0.01 0.01 0.01 0.01 0.01 0.01 0.01 0.01 0.01 0.00
0.06 0.03 0.01 0.01 0.01 0.01 0.01 0.02 0.02 0.04 0.04 0.04 0.03 0.03 0.05 0.08 0.09 0.10 0.11 0.13 0.16 0.14 0.09 0.06 0.06 0.08 0.09 0.08 0.06 0.07 0.09 0.11 0.10 0.07 0.07 0.07 0.06 0.05 0.04 0.01 0.01 0.01 0.01 0.01 0.01 0.01 0.01 0.01 0.00
0.06 0.02 0.01 0.01 0.02 0.02 0.02 0.03 0.03 0.04 0.03 0.03 0.04 0.03 0.04 0.07 0.08 0.08 0.11 0.13 0.11 0.14 0.11 0.07 0.06 0.08 0.10 0.08 0.09 0.07 0.06 0.07 0.09 0.08 0.07 0.07 0.08 0.07 0.06 0.03 0.02 0.01 0.01 0.01 0.01 0.01 0.00 0.00 0.00
0.05 0.02 0.02 0.01 0.02 0.03 0.03 0.03 0.03 0.02 0.02 0.03 0.04 0.04 0.05 0.07 0.07 0.09 0.12 0.13 0.10 0.10 0.15 0.10 0.08 0.07 0.08 0.08 0.08 0.09 0.07 0.06 0.09 0.09 0.08 0.05 0.05 0.06 0.05 0.04 0.03 0.02 0.01 0.01 0.01 0.02 0.01 0.01 0.01
0.03 0.02 0.02 0.02 0.03 0.04 0.04 0.02 0.03 0.02 0.02 0.03 0.05 0.06 0.05 0.05 0.06 0.08 0.10 0.12 0.13 0.09 0.14 0.15 0.09 0.08 0.08 0.08 0.07 0.07 0.08 0.07 0.09 0.10 0.10 0.09 0.07 0.07 0.08 0.04 0.03 0.02 0.02 0.01 0.01 0.00 0.01 0.02 0.01
0.03 0.03 0.02 0.02 0.03 0.04 0.05 0.03 0.02 0.02 0.03 0.04 0.04 0.06 0.07 0.06 0.05 0.07 0.08 0.09 0.13 0.11 0.08 0.12 0.12 0.09 0.09 0.09 0.08 0.06 0.06 0.07 0.09 0.10 0.11 0.10 0.08 0.08 0.09 0.07 0.03 0.03 0.03 0.03 0.02 0.00 0.00 0.00 0.01
0.04 0.04 0.03 0.03 0.04 0.05 0.06 0.05 0.03 0.03 0.03 0.03 0.03 0.03 0.04 0.05 0.04 0.05 0.06 0.06 0.09 0.10 0.09 0.09 0.11 0.12 0.11 0.10 0.09 0.07 0.06 0.05 0.07 0.09 0.09 0.10 0.08 0.06 0.06 0.08 0.06 0.04 0.04 0.05 0.04 0.01 0.00 0.00 0.00
0.04 0.04 0.02 0.02 0.03 0.04 0.04 0.04 0.03 0.02 0.01 0.01 0.02 0.02 0.02 0.02 0.02 0.02 0.03 0.04 0.05 0.07 0.08 0.08 0.08 0.11 0.12 0.12 0.11 0.08 0.06 0.06 0.06 0.07 0.07 0.09 0.08 0.06 0.06 0.06 0.07 0.06 0.05 0.04 0.04 0.02 0.02 0.01 0.01
0.02 0.02 0.01 0.01 0.01 0.02 0.01 0.02 0.03 0.02 0.01 0.00 0.01 0.01 0.02 0.01 0.02 0.01 0.01 0.02 0.03 0.03 0.05 0.06 0.07 0.07 0.07 0.08 0.10 0.10 0.09 0.08 0.06 0.06 0.06 0.06 0.08 0.08 0.07 0.06 0.08 0.07 0.07 0.06 0.03 0.02 0.02 0.02 0.02
0.02 0.01 0.00 0.00 0.01 0.01 0.01 0.02 0.02 0.01 0.01 0.00 0.00 0.01 0.01 0.01 0.01 0.01 0.01 0.01 0.01 0.02 0.02 0.04 0.05 0.05 0.05 0.04 0.04 0.04 0.05 0.06 0.06 0.06 0.06 0.07 0.07 0.08 0.10 0.07 0.07 0.11 0.10 0.09 0.07 0.03 0.02 0.02 0.01
0.01 0.01 0.00 0.00 0.00 0.01 0.01 0.01 0.01 0.01 0.01 0.01 0.01 0.00 0.00 0.00 0.00 0.00 0.00 0.00 0.00 0.01 0.02 0.03 0.04 0.05 0.05 0.04 0.03 0.02 0.01 0.01 0.01 0.02 0.03 0.04 0.05 0.05 0.08 0.09 0.06 0.06 0.10 0.11 0.11 0.08 0.05 0.03 0.02
0.01 0.00 0.00 0.00 0.00 0.01 0.00 0.00 0.00 0.00 0.01 0.01 0.01 0.00 0.00 0.00 0.00 0.00 0.00 0.00 0.00 0.00 0.01 0.03 0.04 0.05 0.05 0.04 0.03 0.02 0.01 0.01 0.01 0.01 0.01 0.01 0.02 0.03 0.03 0.04 0.05 0.04 0.04 0.06 0.08 0.08 0.08 0.06 0.04
0.00 0.00 0.00 0.00 0.01 0.01 0.00 0.00 0.00 0.00 0.00 0.00 0.00 0.01 0.01 0.00 0.00 0.00 0.00 0.00 0.00 0.00 0.01 0.03 0.04 0.05 0.05 0.05 0.04 0.03 0.02 0.01 0.01 0.00 0.00 0.01 0.01 0.01 0.02 0.02 0.02 0.02 0.02 0.02 0.03 0.04 0.05 0.03 0.02
0.00 0.00 0.00 0.00 0.00 0.00 0.00 0.00 0.00 0.00 0.00 0.00 0.00 0.01 0.01 0.01 0.00 0.00 0.00 0.00 0.00 0.00 0.01 0.02 0.04 0.05 0.05 0.05 0.05 0.04 0.04 0.02 0.01 0.01 0.00 0.00 0.00 0.00 0.01 0.01 0.01 0.01 0.01 0.01 0.01 0.02 0.03 0.03 0.02
0.00 0.00 0.00 0.00 0.00 0.00 0.00 0.00 0.00 0.00 0.00 0.00 0.00 0.00 0.01 0.01 0.00 0.00 0.00 0.00 0.00 0.01 0.01 0.01 0.02 0.04 0.04 0.03 0.03 0.03 0.03 0.03 0.02 0.01 0.00 0.00 0.00 0.00 0.00 0.00 0.00 0.00 0.00 0.00 0.00 0.01 0.01 0.02 0.02
0.00 0.00 0.00 0.00 0.00 0.00 0.00 0.00 0.00 0.00 0.00 0.01 0.00 0.00 0.01 0.01 0.01 0.01 0.00 0.00 0.00 0.00 0.00 0.01 0.01 0.02 0.03 0.03 0.02 0.01 0.01 0.01 0.01 0.01 0.00 0.00 0.00 0.00 0.00 0.00 0.00 0.00 0.00 0.00 0.00 0.00 0.00 0.01 0.01
0.00 0.00 0.00 0.00 0.00 0.00 0.00 0.00 0.00 0.00 0.00 0.00 0.00 0.00 0.01 0.01 0.01 0.01 0.01 0.00 0.00 0.00 0.00 0.00 0.00 0.01 0.01 0.02 0.02 0.01 0.01 0.00 0.00 0.00 0.00 0.00 0.00 0.00 0.00 0.00 0.00 0.00 0.00 0.00 0.00 0.00 0.00 0.00 0.00
0.00 0.00 0.00 0.00 0.00 0.00 0.00 0.00 0.00 0.00 0.01 0.01 0.00 0.00 0.01 0.01 0.01 0.01 0.01 0.00 0.00 0.01 0.01 0.01 0.00 0.00 0.00 0.01 0.01 0.01 0.00 0.00 0.00 0.00 0.00 0.00 0.00 0.00 0.00 0.00 0.00 0.00 0.00 0.00 0.00 0.00 0.00 0.00 0.00
0.00 0.00 0.01 0.01 0.00 0.00 0.00 0.00 0.00 0.00 0.01 0.01 0.01 0.00 0.01 0.01 0.01 0.01 0.01 0.01 0.01 0.00 0.00 0.00 0.00 0.00 0.00 0.00 0.00 0.00 0.00 0.00 0.00 0.00 0.00 0.00 0.00 0.00 0.00 0.00 0.00 0.00 0.00 0.00 0.00 0.00 0.00 0.00 0.00
0.00 0.00 0.00 0.01 0.01 0.01 0.00 0.00 0.00 0.00 0.01 0.01 0.01 0.01 0.01 0.01 0.01 0.01 0.01 0.01 0.01 0.00 0.00 0.00 0.00 0.00 0.00 0.00 0.00 0.00 0.00 0.00 0.00 0.00 0.00 0.00 0.00 0.00 0.00 0.00 0.00 0.00 0.00 0.00 0.00 0.00 0.00 0.00 0.00
0.00 0.00 0.00 0.01 0.01 0.01 0.01 0.01 0.00 0.00 0.01 0.01 0.01 0.01 0.01 0.01 0.01 0.01 0.01 0.01 0.00 0.00 0.00 0.00 0.00 0.00 0.00 0.00 0.00 0.00 0.00 0.00 0.00 0.00 0.00 0.00 0.00 0.00 0.00 0.00 0.00 0.00 0.00 0.00 0.00 0.00 0.00 0.00 0.00
MSLP
1014.25 1014.76 1015.35 1015.95 1016.46 1016.83 1017.03 1017.05 1016.95 1016.78 1016.62 1016.52 1016.50 1016.57 1016.68 1016.77 1016.80 1016.72 1016.52 1016.23 1015.89 1015.58 1015.34 1015.23 1015.26 1015.41 1015.64 1015.89 1016.12 1016.29 1016.39 1016.43 1016.44 1016.47 1016.52 1016.63 1016.78 1016.95 1017.11 1017.24 1017.32 1017.34 1017.34 1017.32 1017.30 1017.31 1017.35 1017.41 1017.47
1014.59 1015.11 1015.67 1016.19 1016.60 1016.85 1016.92 1016.84 1016.64 1016.42 1016.23 1016.12 1016.11 1016.19 1016.31 1016.42 1016.46 1016.40 1016.22 1015.96 1015.66 1015.39 1015.20 1015.14 1015.22 1015.40 1015.66 1015.94 1016.19 1016.37 1016.49 1016.55 1016.57 1016.60 1016.65 1016.74 1016.86 1016.99 1017.11 1017.20 1017.25 1017.27 1017.26 1017.24 1017.23 1017.25 1017.29 1017.36 1017.43
1014.90 1015.38 1015.86 1016.27 1016.55 1016.67 1016.63 1016.47 1016.24 1016.02 1015.85 1015.79 1015.82 1015.94 1016.09 1016.21 1016.26 1016.20 1016.03 1015.80 1015.54 1015.32 1015.19 1015.18 1015.29 1015.52 1015.80 1016.08 1016.34 1016.53 1016.65 1016.71 1016.73 1016.74 1016.77 1016.82 1016.89 1016.97 1017.04 1017.09 1017.10 1017.09 1017.07 1017.05 1017.05 1017.07 1017.12 1017.19 1017.27
1015.16 1015.56 1015.92 1016.18 1016.32 1016.32 1016.20 1016.00 1015.79 1015.62 1015.53 1015.55 1015.67 1015.84 1016.03 1016.17 1016.22 1016.17 1016.02 1015.82 1015.60 1015.44 1015.36 1015.40 1015.56 1015.80 1016.09 1016.37 1016.61 1016.78 1016.88 1016.92 1016.91 1016.89 1016.88 1016.88 1016.90 1016.92 1016.94 1016.94 1016.92 1016.89 1016.85 1016.83 1016.82 1016.84 1016.89 1016.96 1017.04
1015.32 1015.62 1015.84 1015.96 1015.96 1015.86 1015.68 1015.49 1015.33 1015.26 1015.29 1015.42 1015.64 1015.89 1016.12 1016.29 1016.36 1016.32 1016.21 1016.04 1015.88 1015.78 1015.76 1015.85 1016.03 1016.28 1016.54 1016.79 1016.99 1017.11 1017.17 1017.16 1017.11 1017.06 1017.00 1016.96 1016.92 1016.90 1016.87 1016.83 1016.78 1016.72 1016.67 1016.63 1016.61 1016.62 1016.65 1016.71 1016.78
1015.38 1015.57 1015.66 1015.64 1015.53 1015.34 1015.15 1014.99 1014.91 1014.96 1015.12 1015.39 1015.71 1016.04 1016.33 1016.53 1016.63 1016.63 1016.55 1016.44 1016.35 1016.31 1016.35 1016.47 1016.67 1016.89 1017.12 1017.31 1017.44 1017.49 1017.49 1017.43 1017.34 1017.24 1017.15 1017.08 1017.01 1016.95 1016.88 1016.81 1016.74 1016.65 1016.58 1016.52 1016.48 1016.46 1016.47 1016.49 1016.54
1015.36 1015.44 1015.42 1015.28 1015.07 1014.84 1014.64 1014.54 1014.56 1014.72 1015.01 1015.40 1015.83 1016.24 1016.58 1016.83 1016.96 1017.01 1016.99 1016.95 1016.93 1016.96 1017.05 1017.20 1017.39 1017.58 1017.74 1017.85 1017.90 1017.88 1017.81 1017.71 1017.58 1017.47 1017.36 1017.26 1017.18 1017.10 1017.02 1016.92 1016.82 1016.72 1016.62 1016.53 1016.46 1016.40 1016.36 1016.34 1016.34
1015.27 1015.27 1015.15 1014.93 1014.66 1014.40 1014.22 1014.16 1014.27 1014.54 1014.94 1015.43 1015.94 1016.41 1016.81 1017.10 1017.28 1017.38 1017.44 1017.47 1017.53 1017.63 1017.76 1017.92 1018.09 1018.23 1018.33 1018.36 1018.33 1018.25 1018.12 1017.98 1017.84 1017.72 1017.61 1017.52 1017.43 1017.34 1017.25 1017.14 1017.02 1016.90 1016.77 1016.65 1016.54 1016.44 1016.35 1016.28 1016.23
1015.15 1015.08 1014.89 1014.61 1014.31 1014.05 1013.89 1013.89 1014.07 1014.42 1014.89 1015.45 1016.01 1016.52 1016.96 1017.29 1017.53 1017.69 1017.82 1017.94 1018.07 1018.22 1018.39 1018.56 1018.70 1018.79 1018.82 1018.78 1018.69 1018.56 1018.40 1018.25 1018.11 1018.00 1017.90 1017.82 1017.74 1017.65 1017.55 1017.44 1017.30 1017.16 1017.01 1016.86 1016.71 1016.57 1016.43 1016.30 1016.19
1015.00 1014.90 1014.67 1014.36 1014.05 1013.80 1013.67 1013.72 1013.95 1014.34 1014.86 1015.45 1016.03 1016.57 1017.03 1017.40 1017.68 1017.91 1018.10 1018.29 1018.48 1018.68 1018.87 1019.04 1019.15 1019.20 1019.18 1019.09 1018.96 1018.80 1018.65 1018.50 1018.38 1018.29 1018.22 1018.15 1018.08 1017.99 1017.88 1017.75 1017.60 1017.44 1017.28 1017.10 1016.93 1016.75 1016.57 1016.39 1016.22
1014.86 1014.72 1014.48 1014.17 1013.88 1013.65 1013.57 1013.65 1013.91 1014.33 1014.86 1015.45 1016.03 1016.57 1017.04 1017.42 1017.75 1018.02 1018.28 1018.52 1018.76 1019.00 1019.20 1019.36 1019.45 1019.46 1019.41 1019.30 1019.16 1019.01 1018.87 1018.75 1018.66 1018.59 1018.53 1018.47 1018.40 1018.30 1018.18 1018.03 1017.87 1017.70 1017.52 1017.34 1017.15 1016.95 1016.74 1016.52 1016.30
1014.72 1014.57 1014.33 1014.04 1013.78 1013.60 1013.56 1013.68 1013.97 1014.40 1014.92 1015.49 1016.05 1016.57 1017.03 1017.42 1017.77 1018.08 1018.37 1018.66 1018.93 1019.18 1019.38 1019.53 1019.60 1019.61 1019.55 1019.44 1019.32 1019.19 1019.08 1019.00 1018.94 1018.89 1018.84 1018.77 1018.68 1018.56 1018.42 1018.26 1018.09 1017.91 1017.73 1017.54 1017.35 1017.14 1016.91 1016.66 1016.40
1014.60 1014.44 1014.21 1013.97 1013.76 1013.65 1013.66 1013.83 1014.14 1014.57 1015.07 1015.61 1016.13 1016.62 1017.06 1017.45 1017.80 1018.12 1018.44 1018.74 1019.02 1019.27 1019.47 1019.60 1019.67 1019.68 1019.63 1019.55 1019.46 1019.38 1019.31 1019.26 1019.22 1019.18 1019.12 1019.03 1018.91 1018.76 1018.60 1018.42 1018.24 1018.06 1017.88 1017.70 1017.51 1017.30 1017.06 1016.79 1016.49
1014.51 1014.34 1014.14 1013.95 1013.82 1013.78 1013.87 1014.09 1014.42 1014.85 1015.34 1015.83 1016.32 1016.76 1017.17 1017.54 1017.88 1018.20 1018.51 1018.80 1019.07 1019.31 1019.50 1019.63 1019.70 1019.72 1019.70 1019.67 1019.63 1019.59 1019.56 1019.54 1019.51 1019.45 1019.37 1019.25 1019.09 1018.91 1018.72 1018.52 1018.34 1018.16 1018.00 1017.83 1017.64 1017.43 1017.17 1016.88 1016.56
1014.47 1014.30 1014.14 1014.01 1013.96 1014.01 1014.18 1014.45 1014.82 1015.25 1015.71 1016.17 1016.60 1017.00 1017.36 1017.69 1018.01 1018.31 1018.60 1018.87 1019.12 1019.34 1019.51 1019.64 1019.72 1019.77 1019.79 1019.80 1019.82 1019.83 1019.83 1019.83 1019.79 1019.71 1019.60 1019.44 1019.24 1019.03 1018.82 1018.61 1018.43 1018.26 1018.10 1017.93 1017.75 1017.53 1017.26 1016.95 1016.59
1014.50 1014.34 1014.22 1014.16 1014.20 1014.34 1014.58 1014.91 1015.31 1015.73 1016.16 1016.57 1016.95 1017.29 1017.61 1017.90 1018.18 1018.45 1018.71 1018.95 1019.18 1019.37 1019.53 1019.66 1019.76 1019.84 1019.90 1019.97 1020.03 1020.08 1020.11 1020.10 1020.05 1019.95 1019.80 1019.60 1019.38 1019.14 1018.92 1018.71 1018.53 1018.37 1018.22 1018.06 1017.86 1017.62 1017.33 1016.98 1016.58
1014.61 1014.47 1014.39 1014.41 1014.53 1014.76 1015.07 1015.45 1015.85 1016.26 1016.64 1017.00 1017.31 1017.59 1017.85 1018.10 1018.34 1018.57 1018.80 1019.02 1019.22 1019.40 1019.56 1019.69 1019.80 1019.92 1020.03 1020.14 1020.24 1020.32 1020.36 1020.36 1020.29 1020.16 1019.98 1019.75 1019.51 1019.27 1019.04 1018.85 1018.68 1018.53 1018.38 1018.20 1017.99 1017.72 1017.39 1017.00 1016.57
1014.81 1014.70 1014.68 1014.77 1014.97 1015.26 1015.62 1016.01 1016.40 1016.77 1017.09 1017.37 1017.60 1017.82 1018.02 1018.22 1018.43 1018.65 1018.86 1019.06 1019.25 1019.42 1019.57 1019.71 1019.85 1020.00 1020.14 1020.29 1020.42 1020.52 1020.57 1020.56 1020.48 1020.33 1020.13 1019.89 1019.65 1019.41 1019.20 1019.03 1018.87 1018.73 1018.57 1018.38 1018.14 1017.84 1017.47 1017.04 1016.57
1015.08 1015.01 1015.05 1015.21 1015.48 1015.82 1016.20 1016.57 1016.92 1017.21 1017.44 1017.62 1017.77 1017.91 1018.06 1018.23 1018.42 1018.63 1018.84 1019.04 1019.23 1019.40 1019.56 1019.72 1019.88 1020.05 1020.23 1020.40 1020.56 1020.67 1020.73 1020.71 1020.62 1020.46 1020.25 1020.02 1019.79 1019.57 1019.38 1019.23 1019.09 1018.95 1018.79 1018.58 1018.32 1017.98 1017.58 1017.13 1016.63
1015.41 1015.40 1015.51 1015.73 1016.04 1016.40 1016.77 1017.09 1017.35 1017.53 1017.65 1017.72 1017.78 1017.85 1017.95 1018.10 1018.29 1018.51 1018.74 1018.96 1019.17 1019.36 1019.54 1019.71 1019.89 1020.08 1020.27 1020.46 1020.63 1020.75 1020.81 1020.80 1020.70 1020.55 1020.35 1020.13 1019.92 1019.72 1019.56 1019.43 1019.31 1019.17 1019.01 1018.79 1018.51 1018.15 1017.74 1017.27 1016.76
1015.78 1015.84 1016.02 1016.30 1016.64 1016.99 1017.31 1017.55 1017.69 1017.74 1017.72 1017.66 1017.62 1017.62 1017.69 1017.83 1018.04 1018.30 1018.57 1018.83 1019.07 1019.29 1019.49 1019.67 1019.86 1020.06 1020.26 1020.46 1020.63 1020.76 1020.82 1020.81 1020.73 1020.58 1020.40 1020.20 1020.01 1019.85 1019.71 1019.60 1019.49 1019.36 1019.20 1018.97 1018.69 1018.34 1017.93 1017.48 1016.99
1016.18 1016.31 1016.56 1016.89 1017.24 1017.57 1017.81 1017.94 1017.95 1017.84 1017.67 1017.48 1017.34 1017.28 1017.33 1017.48 1017.73 1018.04 1018.36 1018.68 1018.96 1019.21 1019.42 1019.61 1019.80 1019.99 1020.19 1020.39 1020.56 1020.69 1020.76 1020.76 1020.69 1020.56 1020.40 1020.23 1020.06 1019.92 1019.80 1019.70 1019.60 1019.48 1019.32 1019.11 1018.84 1018.52 1018.15 1017.74 1017.31
1016.60 1016.81 1017.12 1017.50 1017.86 1018.14 1018.30 1018.30 1018.15 1017.88 1017.56 1017.25 1017.01 1016.90 1016.94 1017.12 1017.41 1017.78 1018.16 1018.53 1018.86 1019.13 1019.35 1019.53 1019.71 1019.88 1020.06 1020.25 1020.41 1020.54 1020.62 1020.64 1020.58 1020.48 1020.34 1020.19 1020.04 1019.91 1019.81 1019.71 1019.62 1019.51 1019.36 1019.18 1018.94 1018.67 1018.36 1018.03 1017.66
1017.05 1017.34 1017.72 1018.12 1018.48 1018.71 1018.77 1018.65 1018.35 1017.92 1017.46 1017.03 1016.71 1016.56 1016.59 1016.80 1017.14 1017.56 1018.01 1018.42 1018.77 1019.05 1019.27 1019.44 1019.58 1019.72 1019.88 1020.04 1020.19 1020.32 1020.40 1020.43 1020.40 1020.32 1020.20 1020.07 1019.94 1019.82 1019.72 1019.62 1019.53 1019.43 1019.31 1019.15 1018.97 1018.76 1018.53 1018.28 1018.01
1017.54 1017.89 1018.33 1018.76 1019.10 1019.28 1019.25 1019.01 1018.57 1018.01 1017.42 1016.89 1016.51 1016.33 1016.36 1016.59 1016.97 1017.44 1017.92 1018.36 1018.73 1019.00 1019.19 1019.32 1019.42 1019.52 1019.63 1019.76 1019.89 1020.01 1020.10 1020.15 1020.14 1020.08 1019.98 1019.87 1019.74 1019.63 1019.52 1019.43 1019.34 1019.25 1019.15 1019.03 1018.90 1018.77 1018.62 1018.46 1018.28
1018.06 1018.48 1018.95 1019.40 1019.72 1019.84 1019.73 1019.38 1018.83 1018.16 1017.48 1016.88 1016.45 1016.24 1016.27 1016.52 1016.93 1017.42 1017.92 1018.37 1018.72 1018.96 1019.11 1019.19 1019.23 1019.28 1019.34 1019.43 1019.53 1019.64 1019.73 1019.79 1019.80 1019.76 1019.68 1019.57 1019.46 1019.34 1019.24 1019.14 1019.05 1018.97 1018.89 1018.81 1018.73 1018.66 1018.60 1018.53 1018.44
1018.60 1019.05 1019.55 1020.00 1020.29 1020.36 1020.18 1019.75 1019.12 1018.37 1017.62 1016.98 1016.52 1016.30 1016.34 1016.59 1017.01 1017.51 1018.00 1018.43 1018.75 1018.96 1019.05 1019.07 1019.04 1019.02 1019.02 1019.06 1019.13 1019.22 1019.30 1019.36 1019.38 1019.35 1019.29 1019.20 1019.09 1018.98 1018.88 1018.78 1018.70 1018.63 1018.56 1018.51 1018.47 1018.45 1018.44 1018.44 1018.43
1019.12 1019.59 1020.09 1020.51 1020.76 1020.79 1020.55 1020.06 1019.37 1018.59 1017.82 1017.16 1016.71 1016.50 1016.53 1016.79 1017.20 1017.69 1018.16 1018.56 1018.83 1018.98 1019.01 1018.96 1018.87 1018.78 1018.72 1018.71 1018.73 1018.78 1018.84 1018.89 1018.91 1018.89 1018.84 1018.76 1018.67 1018.57 1018.47 1018.38 1018.30 1018.23 1018.18 1018.14 1018.12 1018.12 1018.15 1018.20 1018.24
1019.58 1020.04 1020.50 1020.87 1021.07 1021.04 1020.76 1020.24 1019.55 1018.77 1018.02 1017.39 1016.96 1016.77 1016.82 1017.08 1017.48 1017.94 1018.38 1018.73 1018.96 1019.05 1019.03 1018.91 1018.76 1018.60 1018.47 1018.39 1018.36 1018.37 1018.39 1018.42 1018.43 1018.41 1018.36 1018.30 1018.21 1018.12 1018.04 1017.95 1017.88 1017.81 1017.76 1017.72 1017.70 1017.71 1017.75 1017.80 1017.88
1019.95 1020.35 1020.74 1021.04 1021.17 1021.09 1020.78 1020.25 1019.59 1018.85 1018.16 1017.59 1017.22 1017.07 1017.15 1017.42 1017.80 1018.24 1018.64 1018.95 1019.13 1019.17 1019.09 1018.93 1018.71 1018.50 1018.31 1018.16 1018.07 1018.01 1017.99 1017.98 1017.96 1017.93 1017.89 1017.83 1017.76 1017.68 1017.61 1017.53 1017.46 1017.40 1017.33 1017.28 1017.25 1017.24 1017.25 1017.30 1017.38
Thickness
5661 5665 5668 5664 5651 5640 5646 5659 5671 5678 5685 5693 5699 5701 5701 5702 5703 5705 5718 5726 5728 5729 5730 5730 5731 5731 5730 5730 5730 5730 5730 5730 5729 5729 5729 5728 5728 5727 5726 5726 5726 5725 5725 5724 5724 5723 5722 5722 5721
5651 5654 5653 5645 5635 5629 5641 5656 5665 5675 5682 5687 5691 5694 5695 5698 5705 5710 5716 5720 5723 5725 5726 5726 5727 5727 5727 5727 5727 5727 5727 5726 5726 5726 5726 5725 5725 5724 5724 5723 5723 5722 5722 5721 5720 5719 5719 5718 5718
5640 5643 5636 5629 5625 5629 5642 5655 5661 5669 5676 5681 5681 5686 5689 5693 5700 5706 5712 5715 5717 5719 5721 5722 5722 5723 5723 5723 5723 5723 5723 5723 5723 5723 5723 5722 5722 5721 5721 5720 5719 5719 5718 5718 5717 5716 5715 5715 5714
5628 5625 5621 5617 5623 5633 5644 5653 5658 5661 5667 5673 5675 5676 5683 5691 5696 5702 5708 5710 5712 5713 5715 5716 5718 5718 5719 5719 5719 5719 5719 5719 5719 5719 5719 5719 5719 5718 5717 5717 5716 5715 5715 5714 5713 5713 5712 5711 5711
5614 5610 5607 5607 5619 5631 5640 5648 5653 5656 5659 5664 5668 5669 5676 5686 5693 5698 5702 5704 5705 5707 5710 5711 5713 5713 5714 5714 5715 5715 5715 5715 5715 5715 5715 5715 5715 5714 5714 5713 5712 5712 5711 5711 5710 5709 5709 5708 5707
5598 5597 5595 5600 5614 5627 5635 5643 5647 5649 5652 5657 5661 5663 5670 5681 5686 5691 5696 5698 5700 5702 5704 5706 5707 5708 5709 5710 5710 5710 5710 5710 5710 5710 5711 5710 5710 5710 5709 5709 5708 5708 5707 5707 5706 5706 5705 5704 5704
5589 5588 5592 5598 5607 5618 5629 5637 5640 5641 5646 5651 5658 5659 5665 5674 5680 5685 5689 5692 5694 5696 5698 5700 5701 5701 5703 5704 5704 5705 5705 5705 5705 5705 5705 5705 5705 5705 5704 5704 5704 5703 5703 5703 5702 5702 5701 5700 5700
5585 5584 5587 5592 5602 5612 5624 5631 5636 5639 5642 5649 5654 5655 5659 5669 5674 5679 5682 5684 5686 5688 5691 5693 5694 5695 5697 5698 5698 5699 5700 5700 5700 5700 5700 5700 5700 5700 5699 5699 5699 5698 5698 5698 5698 5697 5697 5696 5695
5584 5577 5580 5590 5600 5610 5621 5625 5630 5636 5638 5643 5649 5655 5662 5667 5669 5672 5674 5675 5678 5681 5684 5687 5688 5689 5690 5691 5692 5693 5694 5694 5694 5694 5694 5694 5694 5694 5694 5694 5693 5693 5693 5693 5693 5692 5692 5692 5691
5575 5572 5583 5595 5603 5610 5617 5622 5625 5629 5632 5637 5643 5650 5656 5660 5662 5664 5666 5668 5670 5673 5676 5680 5682 5683 5684 5684 5685 5686 5687 5688 5688 5688 5688 5688 5688 5688 5688 5688 5688 5688 5688 5688 5687 5687 5687 5686 5686
5574 5576 5586 5594 5602 5608 5613 5617 5622 5625 5627 5635 5641 5645 5650 5653 5655 5657 5659 5662 5664 5666 5668 5672 5675 5677 5678 5678 5679 5680 5680 5681 5681 5682 5681 5682 5682 5682 5682 5682 5682 5682 5682 5682 5682 5682 5681 5681 5680
5571 5577 5585 5591 5599 5604 5608 5612 5616 5621 5629 5637 5641 5644 5645 5646 5648 5650 5652 5655 5658 5660 5662 5665 5667 5670 5671 5672 5673 5673 5674 5674 5675 5675 5675 5675 5675 5675 5675 5676 5676 5676 5676 5676 5676 5676 5675 5675 5675
5569 5575 5582 5587 5593 5599 5604 5607 5612 5616 5624 5631 5635 5637 5639 5640 5642 5644 5647 5650 5652 5654 5656 5660 5663 5664 5665 5666 5667 5667 5668 5668 5668 5668 5668 5668 5668 5668 5668 5669 5670 5670 5670 5670 5670 5670 5670 5669 5669
5568 5573 5579 5585 5591 5597 5600 5604 5608 5612 5618 5624 5628 5629 5632 5635 5637 5640 5642 5643 5645 5648 5650 5652 5655 5657 5658 5659 5660 5661 5661 5661 5661 5662 5662 5662 5662 5662 5662 5663 5664 5664 5664 5664 5664 5663 5663 5663 5663
5570 5572 5577 5582 5589 5593 5597 5597 5600 5607 5613 5617 5620 5623 5626 5629 5632 5635 5636 5638 5640 5642 5644 5647 5649 5650 5652 5653 5654 5654 5655 5655 5655 5655 5656 5656 5656 5656 5656 5656 5657 5657 5658 5658 5657 5657 5657 5657 5656
5567 5566 5567 5578 5585 5591 5592 5589 5598 5603 5607 5610 5613 5617 5620 5624 5627 5630 5632 5634 5636 5637 5639 5641 5643 5644 5646 5646 5647 5648 5648 5648 5648 5649 5649 5649 5649 5650 5650 5650 5650 5650 5651 5651 5651 5650 5650 5649 5649
5557 5558 5563 5574 5582 5587 5588 5587 5595 5599 5603 5606 5609 5612 5615 5618 5622 5624 5627 5629 5631 5632 5633 5635 5636 5638 5639 5640 5640 5641 5641 5642 5642 5642 5641 5641 5642 5643 5643 5643 5642 5643 5643 5644 5643 5643 5642 5642 5642
5555 5558 5563 5569 5578 5583 5583 5584 5591 5595 5600 5602 5605 5607 5611 5614 5617 5620 5622 5624 5626 5626 5627 5628 5629 5631 5632 5632 5633 5634 5634 5635 5634 5634 5634 5634 5634 5635 5635 5635 5635 5635 5636 5636 5636 5635 5635 5634 5634
5560 5560 5563 5568 5575 5578 5579 5582 5589 5593 5596 5598 5600 5603 5607 5610 5613 5615 5617 5618 5619 5619 5621 5622 5623 5623 5624 5625 5625 5625 5624 5625 5626 5626 5626 5626 5626 5627 5627 5627 5627 5627 5627 5627 5627 5627 5627 5626 5626
5561 5560 5562 5568 5573 5576 5576 5580 5587 5591 5594 5596 5599 5601 5604 5606 5608 5610 5611 5612 5613 5613 5615 5615 5616 5616 5617 5617 5617 5617 5617 5617 5617 5617 5617 5617 5617 5618 5618 5618 5618 5618 5618 5618 5618 5618 5617 5617 5616
5558 5559 5562 5565 5568 5569 5574 5580 5586 5591 5593 5596 5598 5600 5602 5604 5605 5606 5606 5606 5606 5607 5608 5610 5609 5610 5610 5610 5610 5610 5609 5608 5608 5608 5608 5608 5609 5609 5610 5610 5609 5609 5609 5609 5609 5608 5608 5607 5606
5556 5560 5563 5563 5560 5554 5563 5562 5578 5583 5588 5593 5594 5595 5597 5600 5601 5601 5602 5602 5601 5602 5602 5603 5604 5603 5603 5602 5602 5601 5600 5599 5599 5599 5600 5600 5601 5602 5602 5601 5601 5600 5600 5600 5599 5599 5598 5598 5597
5556 5558 5557 5556 5554 5550 5552 5554 5566 5576 5586 5591 5593 5593 5594 5596 5597 5598 5598 5598 5597 5597 5596 5596 5596 5596 5596 5595 5594 5593 5592 5591 5591 5592 5592 5593 5593 5593 5593 5593 5592 5592 5591 5591 5590 5589 5589 5588 5588
5556 5555 5551 5542 5542 5550 5551 5550 5561 5568 5582 5589 5591 5591 5591 5592 5592 5593 5593 5592 5591 5590 5589 5589 5590 5589 5589 5588 5587 5585 5584 5584 5583 5584 5584 5584 5584 5585 5585 5584 5584 5583 5583 5582 5582 5581 5580 5579 5578
5551 5544 5535 5538 5532 5542 5543 5544 5556 5574 5580 5583 5586 5586 5586 5586 5586 5586 5586 5585 5584 5583 5583 5582 5583 5583 5581 5580 5578 5578 5577 5577 5576 5575 5575 5575 5575 5576 5576 5576 5575 5575 5575 5574 5573 5573 5571 5570 5569
5545 5545 5534 5537 5534 5533 5537 5540 5560 5574 5576 5577 5579 5581 5581 5580 5579 5580 5579 5578 5578 5577 5576 5575 5576 5576 5575 5573 5572 5571 5570 5569 5568 5567 5567 5567 5567 5567 5568 5567 5567 5567 5567 5566 5566 5565 5563 5562 5560
5545 5533 5534 5522 5520 5524 5535 5540 5557 5571 5572 5573 5574 5575 5574 5573 5572 5572 5572 5572 5571 5570 5570 5569 5568 5568 5568 5567 5565 5564 5562 5561 5560 5560 5560 5560 5560 5560 5560 5559 5559 5559 5558 5558 5557 5556 5555 5554 5552
5541 5530 5520 5523 5530 5532 5536 5538 5546 5561 5565 5567 5568 5567 5567 5567 5565 5565 5564 5564 5564 5563 5562 5562 5561 5561 5560 5559 5558 5558 5556 5555 5554 5553 5552 5552 5552 5552 5551 5551 5551 5550 5550 5549 5549 5547 5546 5545 5544
5535 5530 5520 5510 5514 5519 5526 5540 5552 5554 5558 5559 5560 5560 5559 5559 5558 5557 5556 5556 5556 5556 5555 5554 5553 5553 5552 5552 5550 5549 5548 5548 5547 5546 5546 5545 5545 5544 5544 5543 5543 5542 5541 5540 5539 5538 5538 5536 5535
5534 5529 5518 5519 5513 5501 5500 5529 5552 5548 5550 5552 5553 5553 5552 5552 5551 5550 5549 5549 5548 5548 5547 5547 5546 5546 5545 5545 5543 5542 5541 5540 5539 5539 5539 5538 5537 5536 5536 5535 5535 5534 5533 5532 5530 5529 5528 5527 5525